TimeEST,TemperatureF,Dew PointF,Humidity,Sea Level PressureIn,VisibilityMPH,Wind Direction,Wind SpeedMPH,Gust SpeedMPH,PrecipitationIn,Events,Conditions,WindDirDegrees,DateUTC
9:35 AM,41.0,28.4,61,30.22,-9999.0,NNW,15.0,23.0,N/A,,Unknown,340,2013-03-08 14:35:00
10:15 AM,42.8,28.4,57,30.23,10.0,NNW,20.7,31.1,N/A,,Overcast,330,2013-03-08 15:15:00
10:35 AM,42.8,28.4,57,30.22,10.0,NNW,13.8,28.8,N/A,,Overcast,330,2013-03-08 15:35:00
10:55 AM,42.8,28.4,57,30.22,10.0,NNW,17.3,32.2,N/A,,Overcast,330,2013-03-08 15:55:00
11:15 AM,42.8,28.4,57,30.23,10.0,NNW,16.1,31.1,N/A,,Overcast,330,2013-03-08 16:15:00
11:35 AM,44.6,28.4,53,30.23,10.0,NNW,20.7,36.8,N/A,,Mostly Cloudy,330,2013-03-08 16:35:00
11:55 AM,44.6,28.4,53,30.22,10.0,NNW,21.9,29.9,N/A,,Scattered Clouds,340,2013-03-08 16:55:00
12:15 PM,44.6,28.4,53,30.22,10.0,NNW,13.8,26.5,N/A,,Scattered Clouds,340,2013-03-08 17:15:00
12:35 PM,44.6,28.4,53,30.21,10.0,NNW,10.4,25.3,N/A,,Scattered Clouds,340,2013-03-08 17:35:00
12:55 PM,44.6,28.4,53,30.21,10.0,NW,15.0,24.2,N/A,,Scattered Clouds,320,2013-03-08 17:55:00
1:15 PM,46.4,30.2,53,30.20,10.0,NNW,12.7,29.9,N/A,,Scattered Clouds,340,2013-03-08 18:15:00
1:35 PM,46.4,30.2,53,30.19,10.0,NNW,19.6,28.8,N/A,,Scattered Clouds,340,2013-03-08 18:35:00
1:55 PM,46.4,30.2,53,30.18,10.0,NNW,12.7,20.7,N/A,,Clear,330,2013-03-08 18:55:00
2:15 PM,46.4,30.2,53,30.17,10.0,NNW,16.1,26.5,N/A,,Clear,340,2013-03-08 19:15:00
2:35 PM,46.4,30.2,53,30.18,10.0,NNW,13.8,23.0,N/A,,Clear,330,2013-03-08 19:35:00
2:55 PM,46.4,30.2,53,30.18,10.0,NNW,11.5,28.8,N/A,,Clear,330,2013-03-08 19:55:00
3:15 PM,48.2,30.2,50,30.19,10.0,NNW,13.8,25.3,N/A,,Clear,340,2013-03-08 20:15:00
3:35 PM,48.2,30.2,50,30.19,10.0,NNW,15.0,24.2,N/A,,Clear,340,2013-03-08 20:35:00
3:55 PM,48.2,30.2,50,30.20,10.0,NNW,16.1,23.0,N/A,,Clear,330,2013-03-08 20:55:00
4:15 PM,48.2,32.0,54,30.20,10.0,North,17.3,20.7,N/A,,Clear,350,2013-03-08 21:15:00
4:35 PM,48.2,32.0,54,30.21,10.0,North,17.3,21.9,N/A,,Clear,350,2013-03-08 21:35:00
4:55 PM,48.2,32.0,54,30.22,10.0,NNW,16.1,24.2,N/A,,Clear,340,2013-03-08 21:55:00
5:15 PM,46.4,30.2,53,30.23,10.0,NNW,12.7,23.0,N/A,,Clear,330,2013-03-08 22:15:00
5:35 PM,46.4,30.2,53,30.24,10.0,NNW,12.7,20.7,N/A,,Clear,330,2013-03-08 22:35:00
5:55 PM,46.4,30.2,53,30.24,10.0,NNW,13.8,20.7,N/A,,Clear,340,2013-03-08 22:55:00
6:15 PM,46.4,30.2,53,30.24,10.0,NW,12.7,18.4,N/A,,Clear,320,2013-03-08 23:15:00
6:35 PM,46.4,30.2,53,30.25,10.0,NNW,10.4,17.3,N/A,,Clear,340,2013-03-08 23:35:00
6:55 PM,44.6,30.2,57,30.26,10.0,NNW,9.2,-,N/A,,Clear,340,2013-03-08 23:55:00
7:15 PM,44.6,30.2,57,30.27,10.0,NNW,4.6,17.3,N/A,,Clear,330,2013-03-09 00:15:00
7:35 PM,44.6,30.2,57,30.27,10.0,NNW,11.5,19.6,N/A,,Clear,330,2013-03-09 00:35:00
7:55 PM,44.6,30.2,57,30.28,10.0,NNW,11.5,16.1,N/A,,Clear,330,2013-03-09 00:55:00
8:15 PM,44.6,30.2,57,30.28,10.0,NNW,10.4,16.1,N/A,,Clear,330,2013-03-09 01:15:00
8:35 PM,42.8,30.2,61,30.29,10.0,NNW,9.2,17.3,N/A,,Clear,330,2013-03-09 01:35:00
8:55 PM,44.6,30.2,57,30.29,10.0,NNW,11.5,18.4,N/A,,Scattered Clouds,330,2013-03-09 01:55:00
9:15 PM,42.8,30.2,61,30.30,10.0,NNW,11.5,16.1,N/A,,Scattered Clouds,330,2013-03-09 02:15:00
9:35 PM,42.8,30.2,61,30.29,10.0,North,11.5,19.6,N/A,,Scattered Clouds,350,2013-03-09 02:35:00
9:55 PM,42.8,30.2,61,30.29,10.0,NNW,15.0,21.9,N/A,,Clear,340,2013-03-09 02:55:00
10:15 PM,42.8,30.2,61,30.29,10.0,NNW,10.4,18.4,N/A,,Clear,340,2013-03-09 03:15:00
10:35 PM,42.8,30.2,61,30.29,10.0,NNW,11.5,19.6,N/A,,Clear,330,2013-03-09 03:35:00
10:55 PM,42.8,30.2,61,30.27,10.0,NNW,10.4,18.4,N/A,,Clear,340,2013-03-09 03:55:00
11:15 PM,42.8,30.2,61,30.27,10.0,NNW,10.4,-,N/A,,Clear,340,2013-03-09 04:15:00
11:35 PM,42.8,30.2,61,30.27,10.0,NNW,6.9,-,N/A,,Clear,340,2013-03-09 04:35:00
11:55 PM,42.8,30.2,61,30.28,10.0,NNW,5.8,-,N/A,,Clear,340,2013-03-09 04:55:00